• In Hungary
  • List of Countries
  • For 7 days
  • Water Temperature
  • Satellite Maps
  • Weather Map
  • News
  • Weather Widgets
  • user-avatar
    Login

    Hourly Weather Ledowo

    Today, 26 September, Wednesday

    Time Temperature Precipitation Wind Pressure Humidity
    00:00 +7°C° 0 mm 6 mps 774 mmHg 75%
    01:00 +7°C° 0 mm 6 mps 774 mmHg 78%
    02:00 +6°C° 0.1 mm 7 mps 773 mmHg 77%
    03:00 +6°C° 0.1 mm 8 mps 773 mmHg 76%
    04:00 +6°C° 0.1 mm 9 mps 772 mmHg 75%
    05:00 +6°C° 0 mm 9 mps 772 mmHg 73%
    06:00 +7°C° 0 mm 10 mps 772 mmHg 71%
    07:00 +7°C° 0 mm 10 mps 772 mmHg 68%
    08:00 +7°C° 0.2 mm 11 mps 771 mmHg 70%
    09:00 +7°C° 0.2 mm 11 mps 771 mmHg 73%
    10:00 +8°C° 0.2 mm 11 mps 770 mmHg 75%
    11:00 +8°C° 0.3 mm 12 mps 769 mmHg 72%
    12:00 +9°C° 0.3 mm 12 mps 768 mmHg 69%
    13:00 +9°C° 0.3 mm 12 mps 768 mmHg 66%
    14:00 +10°C° 0.2 mm 12 mps 767 mmHg 64%
    15:00 +10°C° 0.2 mm 12 mps 766 mmHg 61%
    16:00 +10°C° 0.2 mm 12 mps 766 mmHg 59%
    17:00 +12°C° 0.2 mm 12 mps 765 mmHg 62%
    18:00 +12°C° 0.2 mm 12 mps 765 mmHg 66%
    19:00 +12°C° 0.2 mm 12 mps 765 mmHg 69%
    20:00 +12°C° 0.2 mm 12 mps 764 mmHg 73%
    21:00 +13°C° 0.2 mm 12 mps 764 mmHg 78%
    22:00 +14°C° 0.2 mm 12 mps 764 mmHg 82%
    23:00 +14°C° 0.2 mm 12 mps 764 mmHg 84%

    Tomorrow, 27 September, Thursday

    Time Temperature Precipitation Wind Pressure Humidity
    00:00 +14°C° 0.2 mm 12 mps 764 mmHg 86%
    01:00 +16°C° 0.2 mm 11 mps 764 mmHg 89%
    02:00 +16°C° 0.2 mm 11 mps 764 mmHg 89%
    03:00 +16°C° 0.2 mm 11 mps 764 mmHg 90%
    04:00 +16°C° 0.2 mm 10 mps 764 mmHg 90%
    05:00 +16°C° 0.1 mm 10 mps 765 mmHg 89%
    06:00 +16°C° 0.1 mm 10 mps 765 mmHg 88%
    07:00 +15°C° 0.1 mm 9 mps 765 mmHg 87%
    08:00 +15°C° 0.1 mm 9 mps 765 mmHg 85%
    09:00 +16°C° 0.1 mm 8 mps 766 mmHg 84%
    10:00 +16°C° 0.1 mm 8 mps 766 mmHg 83%
    11:00 +16°C° 0.1 mm 8 mps 766 mmHg 82%
    12:00 +17°C° 0.1 mm 9 mps 765 mmHg 81%
    13:00 +17°C° 0.1 mm 9 mps 765 mmHg 79%
    14:00 +17°C° 0 mm 9 mps 765 mmHg 80%
    15:00 +17°C° 0 mm 9 mps 764 mmHg 80%
    16:00 +17°C° 0 mm 9 mps 763 mmHg 81%
    17:00 +17°C° 0.1 mm 9 mps 763 mmHg 82%
    18:00 +17°C° 0.1 mm 9 mps 762 mmHg 83%
    19:00 +17°C° 0.1 mm 9 mps 762 mmHg 84%
    20:00 +17°C° 0.1 mm 9 mps 761 mmHg 84%
    21:00 +17°C° 0.1 mm 10 mps 761 mmHg 83%
    22:00 +17°C° 0.1 mm 10 mps 760 mmHg 83%
    23:00 +17°C° 0.4 mm 10 mps 759 mmHg 84%

    Day after tomorrow, 28 September, Friday

    Time Temperature Precipitation Wind Pressure Humidity
    00:00 +16°C° 0.4 mm 11 mps 759 mmHg 84%
    01:00 +16°C° 0.4 mm 11 mps 759 mmHg 85%
    02:00 +14°C° 0.3 mm 11 mps 759 mmHg 84%
    03:00 +14°C° 0.3 mm 11 mps 759 mmHg 83%
    04:00 +13°C° 0.3 mm 11 mps 759 mmHg 81%
    05:00 +12°C° 0 mm 10 mps 760 mmHg 79%
    06:00 +11°C° 0 mm 9 mps 760 mmHg 77%
    07:00 +10°C° 0 mm 8 mps 760 mmHg 74%
    08:00 +11°C° 0 mm 8 mps 761 mmHg 71%
    09:00 +12°C° 0 mm 8 mps 761 mmHg 68%
    10:00 +12°C° 0 mm 7 mps 762 mmHg 64%
    11:00 +12°C° 0 mm 7 mps 762 mmHg 63%
    12:00 +14°C° 0 mm 7 mps 763 mmHg 62%
    13:00 +14°C° 0 mm 6 mps 763 mmHg 60%
    14:00 +14°C° 0 mm 6 mps 763 mmHg 60%
    15:00 +13°C° 0 mm 5 mps 763 mmHg 61%
    16:00 +13°C° 0 mm 5 mps 764 mmHg 61%
    17:00 +12°C° 0 mm 4 mps 764 mmHg 63%
    18:00 +10°C° 0 mm 4 mps 764 mmHg 65%
    19:00 +9°C° 0 mm 3 mps 764 mmHg 66%
    20:00 +9°C° 0 mm 3 mps 765 mmHg 65%
    21:00 +9°C° 0 mm 3 mps 765 mmHg 64%
    22:00 +9°C° 0 mm 3 mps 766 mmHg 63%
    23:00 +9°C° 0.2 mm 3 mps 766 mmHg 64%

    29 September, Saturday

    Time Temperature Precipitation Wind Pressure Humidity
    00:00 +8°C° 0.2 mm 4 mps 766 mmHg 66%
    01:00 +8°C° 0.2 mm 4 mps 766 mmHg 67%
    02:00 +8°C° 0.1 mm 4 mps 767 mmHg 68%
    03:00 +9°C° 0.1 mm 3 mps 767 mmHg 68%
    04:00 +9°C° 0.1 mm 3 mps 767 mmHg 69%
    05:00 +9°C° 0 mm 3 mps 768 mmHg 68%
    06:00 +9°C° 0 mm 2 mps 768 mmHg 67%
    07:00 +9°C° 0 mm 2 mps 769 mmHg 66%
    08:00 +10°C° 0 mm 2 mps 769 mmHg 58%
    09:00 +13°C° 0 mm 2 mps 770 mmHg 50%
    10:00 +14°C° 0 mm 2 mps 770 mmHg 42%
    11:00 +13°C° 0 mm 3 mps 770 mmHg 40%
    12:00 +14°C° 0 mm 3 mps 770 mmHg 37%
    13:00 +14°C° 0 mm 3 mps 770 mmHg 35%
    14:00 +14°C° 0 mm 3 mps 770 mmHg 36%
    15:00 +13°C° 0 mm 4 mps 770 mmHg 38%
    16:00 +13°C° 0 mm 4 mps 770 mmHg 39%
    17:00 +12°C° 0 mm 4 mps 770 mmHg 43%
    18:00 +10°C° 0 mm 4 mps 770 mmHg 47%
    19:00 +8°C° 0 mm 4 mps 770 mmHg 51%
    20:00 +7°C° 0 mm 4 mps 770 mmHg 51%
    21:00 +7°C° 0 mm 4 mps 770 mmHg 52%
    22:00 +7°C° 0 mm 4 mps 770 mmHg 53%
    23:00 +7°C° 0 mm 5 mps 770 mmHg 53%

    30 September, Sunday

    Time Temperature Precipitation Wind Pressure Humidity
    00:00 +6°C° 0 mm 5 mps 770 mmHg 54%
    01:00 +6°C° 0 mm 5 mps 770 mmHg 54%
    02:00 +6°C° 0 mm 5 mps 769 mmHg 55%
    03:00 +5°C° 0 mm 6 mps 769 mmHg 56%
    04:00 +5°C° 0 mm 6 mps 769 mmHg 57%
    05:00 +5°C° 0 mm 6 mps 768 mmHg 58%
    06:00 +5°C° 0 mm 6 mps 768 mmHg 60%
    07:00 +5°C° 0 mm 6 mps 768 mmHg 61%
    08:00 +8°C° 0 mm 6 mps 768 mmHg 57%
    09:00 +10°C° 0 mm 6 mps 768 mmHg 54%
    10:00 +12°C° 0 mm 7 mps 768 mmHg 50%
    11:00 +14°C° 0 mm 6 mps 767 mmHg 48%
    12:00 +14°C° 0 mm 6 mps 767 mmHg 46%
    13:00 +15°C° 0 mm 6 mps 766 mmHg 44%
    14:00 +15°C° 0 mm 6 mps 766 mmHg 46%
    15:00 +15°C° 0 mm 6 mps 765 mmHg 47%
    16:00 +15°C° 0 mm 5 mps 765 mmHg 49%
    17:00 +13°C° 0 mm 5 mps 764 mmHg 54%
    18:00 +12°C° 0 mm 4 mps 764 mmHg 59%
    19:00 +10°C° 0 mm 4 mps 764 mmHg 64%
    20:00 +10°C° 0 mm 4 mps 764 mmHg 64%
    21:00 +8°C° 0 mm 4 mps 764 mmHg 65%
    22:00 +8°C° 0 mm 4 mps 763 mmHg 66%
    23:00 +7°C° 0 mm 5 mps 763 mmHg 65%

    1 October, Monday

    Time Temperature Precipitation Wind Pressure Humidity
    00:00 +7°C° 0 mm 5 mps 762 mmHg 65%
    01:00 +7°C° 0 mm 5 mps 762 mmHg 64%
    02:00 +6°C° 0 mm 4 mps 761 mmHg 64%
    03:00 +6°C° 0 mm 4 mps 761 mmHg 63%
    04:00 +6°C° 0 mm 4 mps 760 mmHg 63%
    05:00 +6°C° 0 mm 4 mps 760 mmHg 62%
    06:00 +6°C° 0 mm 4 mps 759 mmHg 62%
    07:00 +6°C° 0 mm 4 mps 759 mmHg 62%
    08:00 +9°C° 0 mm 3 mps 759 mmHg 58%
    09:00 +11°C° 0 mm 3 mps 758 mmHg 53%
    10:00 +13°C° 0 mm 2 mps 758 mmHg 48%
    11:00 +15°C° 0 mm 2 mps 758 mmHg 45%
    12:00 +16°C° 0 mm 1 mps 757 mmHg 42%
    13:00 +18°C° 0 mm 1 mps 757 mmHg 39%
    14:00 +16°C° 0 mm 1 mps 757 mmHg 41%
    15:00 +16°C° 0 mm 1 mps 757 mmHg 44%
    16:00 +16°C° 0 mm 2 mps 757 mmHg 47%
    17:00 +14°C° 0 mm 2 mps 757 mmHg 51%
    18:00 +13°C° 0 mm 2 mps 757 mmHg 55%
    19:00 +10°C° 0 mm 2 mps 757 mmHg 60%
    20:00 +10°C° 0 mm 2 mps 757 mmHg 62%
    21:00 +9°C° 0 mm 2 mps 757 mmHg 65%
    22:00 +9°C° 0 mm 2 mps 758 mmHg 68%
    23:00 +9°C° 0 mm 2 mps 758 mmHg 70%
    Show more